GW3170 Weather Reports


Display with metric or nautical units.
time (UTC)temp
F
wind
direction
speed
MPH
gust
MPH
rain 1hr
in
rain 24hr
in
rain mn
in
humidity
%
barometer
mb
20260508142554 44 271 3.0 6.0 0.00 0.02 0.02 84 1012.4
20260508142057 44 220 3.0 6.0 0.00 0.02 0.02 84 1012.4
20260508141603 44 295 3.0 6.0 0.00 0.02 0.02 84 1012.4
20260508141053 44 270 3.0 6.0 0.01 0.02 0.02 85 1012.4
20260508140553 44 215 3.0 5.0 0.01 0.02 0.02 86 1012.2
20260508140100 44 252 2.0 5.0 0.01 0.02 0.02 87 1012.2
20260508135555 44 293 3.0 5.0 0.01 0.02 0.02 87 1012.3
20260508135054 44 278 3.0 5.0 0.01 0.02 0.02 87 1012.1
20260508134556 43 278 1.0 6.0 0.01 0.02 0.02 86 1012.1
20260508134054 43 254 3.0 6.0 0.01 0.02 0.02 87 1012.1
20260508133554 43 254 3.0 7.0 0.01 0.02 0.02 87 1012.1
20260508133055 43 280 4.0 7.0 0.01 0.02 0.02 87 1012.2
20260508132554 44 243 1.0 4.0 0.01 0.02 0.02 87 1012.2
20260508132054 44 295 2.0 5.0 0.01 0.02 0.02 87 1012.1
20260508131558 44 290 2.0 5.0 0.01 0.02 0.02 87 1012.0
20260508131054 44 264 2.0 5.0 0.00 0.01 0.01 86 1012.0
20260508130554 44 289 2.0 4.0 0.00 0.01 0.01 87 1012.0
20260508130056 44 257 2.0 3.0 0.00 0.01 0.01 87 1012.0
20260508125554 44 298 1.0 5.0 0.00 0.01 0.01 87 1011.9
20260508125055 44 275 1.0 5.0 0.00 0.01 0.01 86 1011.8
20260508124601 44 285 4.0 5.0 0.00 0.01 0.01 86 1011.7
20260508124057 44 276 3.0 5.0 0.00 0.01 0.01 87 1011.7
20260508123554 44 297 1.0 5.0 0.00 0.01 0.01 88 1011.7
20260508123055 44 278 1.0 5.0 0.00 0.01 0.01 89 1011.7
20260508122553 43 277 1.0 5.0 0.00 0.01 0.01 89 1011.5
20260508122054 43 292 1.0 5.0 0.00 0.01 0.01 90 1011.4
20260508121556 43 292 0.0 2.0 0.00 0.01 0.01 91 1011.3
20260508121055 43 285 0.0 2.0 0.00 0.01 0.01 91 1011.2
20260508120554 42 0 0.0 2.0 0.00 0.01 0.01 91 1011.2
20260508120055 42 0 0.0 2.0 0.00 0.01 0.01 92 1011.2
20260508115554 42 0 0.0 2.0 0.00 0.01 0.01 92 1011.4
20260508115054 42 0 0.0 0.0 0.00 0.01 0.01 92 1011.3
20260508114601 42 0 0.0 0.0 0.00 0.01 0.01 92 1011.2
20260508114119 41 0 0.0 0.0 0.00 0.01 0.01 92 1011.2
20260508113554 41 0 0.0 0.0 0.00 0.01 0.01 92 1011.3
20260508113127 41 0 0.0 0.0 0.00 0.01 0.01 92 1011.2
20260508112553 40 0 0.0 0.0 0.00 0.01 0.01 92 1011.2
20260508112053 40 0 0.0 0.0 0.00 0.01 0.01 92 1011.2
20260508111601 40 0 0.0 0.0 0.00 0.01 0.01 92 1011.3
20260508111054 40 0 0.0 0.0 0.00 0.01 0.01 92 1011.4
20260508110555 40 0 0.0 0.0 0.00 0.01 0.01 92 1011.4
20260508110057 40 0 0.0 0.0 0.00 0.01 0.01 92 1011.4
20260508105553 40 0 0.0 0.0 0.00 0.01 0.01 92 1011.4
20260508105054 39 0 0.0 0.0 0.00 0.01 0.01 92 1011.5
20260508104559 39 0 0.0 0.0 0.00 0.01 0.01 92 1011.5
20260508104054 38 0 0.0 0.0 0.00 0.01 0.01 92 1011.4
20260508103554 38 0 0.0 0.0 0.00 0.01 0.01 92 1011.5
20260508103107 38 0 0.0 0.0 0.00 0.01 0.01 91 1011.5
20260508102554 38 0 0.0 0.0 0.00 0.01 0.01 91 1011.4
20260508102054 38 0 0.0 0.0 0.00 0.01 0.01 91 1011.4
20260508101602 38 0 0.0 0.0 0.00 0.01 0.01 91 1011.3
20260508101054 38 0 0.0 0.0 0.00 0.01 0.01 91 1011.2
20260508100553 38 0 0.0 0.0 0.00 0.01 0.01 91 1011.3
20260508095556 38 0 0.0 0.0 0.00 0.01 0.01 91 1011.5
20260508095054 38 0 0.0 0.0 0.00 0.01 0.01 91 1011.5
20260508094558 38 0 0.0 0.0 0.00 0.01 0.01 91 1011.5
20260508094056 38 0 0.0 0.0 0.00 0.01 0.01 92 1011.4
20260508093556 37 0 0.0 0.0 0.00 0.01 0.01 91 1011.3
20260508093100 37 0 0.0 0.0 0.00 0.01 0.01 90 1011.3
20260508092556 37 0 0.0 0.0 0.00 0.01 0.01 90 1011.1
20260508092054 37 0 0.0 0.0 0.00 0.01 0.01 89 1011.0
20260508091559 37 0 0.0 0.0 0.00 0.01 0.01 89 1010.9
20260508091055 37 0 0.0 0.0 0.00 0.01 0.01 89 1011.1
20260508090554 37 0 0.0 0.0 0.00 0.01 0.01 89 1011.1
20260508085554 38 0 0.0 0.0 0.00 0.01 0.01 89 1011.2
20260508085054 38 0 0.0 0.0 0.00 0.01 0.01 89 1011.1
20260508084558 38 0 0.0 0.0 0.00 0.01 0.01 89 1011.1
20260508084054 38 0 0.0 0.0 0.00 0.01 0.01 89 1011.1
20260508083553 38 0 0.0 0.0 0.00 0.01 0.01 88 1011.1
20260508083056 38 0 0.0 0.0 0.00 0.01 0.01 88 1011.0
20260508082555 38 0 0.0 0.0 0.00 0.01 0.01 88 1011.1
20260508082054 39 0 0.0 0.0 0.00 0.01 0.01 88 1011.1
20260508081605 39 0 0.0 0.0 0.00 0.01 0.01 88 1011.2
20260508081054 39 0 0.0 0.0 0.00 0.01 0.01 87 1011.1
20260508080554 39 0 0.0 0.0 0.00 0.01 0.01 87 1011.0
20260508080058 40 0 0.0 0.0 0.00 0.01 0.01 87 1011.0
20260508075555 40 0 0.0 0.0 0.00 0.01 0.01 87 1011.1
20260508075054 40 0 0.0 0.0 0.00 0.01 0.01 87 1011.1
20260508074600 41 0 0.0 0.0 0.00 0.01 0.01 87 1011.1
20260508074054 41 0 0.0 0.0 0.00 0.01 0.01 87 1011.1
20260508073554 41 0 0.0 0.0 0.00 0.01 0.01 87 1011.1
20260508073106 41 0 0.0 0.0 0.00 0.01 0.01 87 1011.1
20260508072554 41 0 0.0 1.0 0.00 0.01 0.01 87 1011.1
20260508072055 41 0 0.0 2.0 0.00 0.01 0.01 87 1011.1
20260508071600 41 242 0.0 2.0 0.00 0.01 0.01 87 1011.2
20260508071054 41 0 0.0 2.0 0.00 0.01 0.01 86 1011.2
20260508070554 41 218 0.0 3.0 0.00 0.01 0.01 86 1011.2
20260508070101 41 0 1.0 3.0 0.00 0.01 0.01 86 1011.3
20260508065555 41 242 1.0 3.0 0.00 0.01 0.01 86 1011.3
20260508065055 41 0 0.0 2.0 0.00 0.01 0.01 86 1011.3
20260508064606 41 0 0.0 2.0 0.00 0.01 0.01 86 1011.2
20260508064054 41 0 0.0 1.0 0.01 0.01 0.01 85 1011.3
20260508063555 41 0 0.0 2.0 0.01 0.01 0.01 85 1011.4
20260508063057 41 0 1.0 2.0 0.01 0.01 0.01 86 1011.4
20260508062554 41 267 0.0 0.0 0.01 0.01 0.01 85 1011.4
20260508062054 41 0 0.0 0.0 0.01 0.01 0.01 85 1011.4
20260508061601 41 0 0.0 2.0 0.01 0.01 0.01 85 1011.4
20260508061054 41 0 0.0 2.0 0.01 0.01 0.01 85 1011.4
20260508060555 41 0 0.0 1.0 0.01 0.01 0.01 84 1011.4
20260508055554 41 0 0.0 4.0 0.01 0.01 0.01 82 1011.3
20260508055054 42 309 2.0 11.0 0.01 0.01 0.01 81 1011.4
20260508054626 42 333 3.0 11.0 0.01 0.01 0.01 80 1011.5
20260508054104 43 292 3.0 6.0 0.00 0.00 0.00 79 1011.5
20260508053554 43 323 1.0 5.0 0.00 0.00 0.00 77 1011.4
20260508053056 43 335 1.0 4.0 0.00 0.00 0.00 76 1011.3
20260508052603 43 331 1.0 5.0 0.00 0.00 0.00 75 1011.2
20260508052057 44 0 1.0 5.0 0.00 0.00 0.00 75 1011.0
20260508051558 44 0 1.0 5.0 0.00 0.00 0.00 74 1011.1
20260508051055 44 288 1.0 6.0 0.00 0.00 0.00 73 1011.0
20260508050555 44 0 2.0 6.0 0.00 0.00 0.00 72 1010.9
20260508050058 44 298 3.0 6.0 0.00 0.00 0.00 72 1011.0
20260508045554 44 311 2.0 4.0 0.00 0.00 0.00 72 1010.8
20260508045054 44 286 2.0 4.0 0.00 0.00 0.00 72 1010.9
20260508044555 44 300 0.0 5.0 0.00 0.00 0.00 73 1010.9
20260508044055 44 283 2.0 5.0 0.00 0.00 0.00 73 1011.0
20260508043556 44 293 1.0 3.0 0.00 0.00 0.00 72 1010.9
20260508043058 44 248 1.0 3.0 0.00 0.00 0.00 72 1010.9
20260508042554 44 275 1.0 4.0 0.00 0.00 0.00 71 1010.8
20260508042054 44 289 0.0 4.0 0.00 0.00 0.00 73 1010.9
20260508041558 43 295 0.0 4.0 0.00 0.00 0.00 72 1010.9
20260508041054 43 286 0.0 2.0 0.00 0.00 0.00 73 1010.9
20260508040555 43 275 0.0 2.0 0.00 0.00 0.00 74 1010.9
20260508040104 43 0 0.0 2.0 0.00 0.00 0.00 74 1010.9
20260508035558 42 0 0.0 2.0 0.00 0.00 0.00 75 1010.8
20260508035054 42 0 1.0 2.0 0.00 0.00 0.00 77 1010.9
20260508034555 41 0 0.0 0.0 0.00 0.00 0.00 79 1010.9
20260508034053 41 0 0.0 0.0 0.00 0.00 0.00 81 1010.9
20260508033553 40 0 0.0 0.0 0.00 0.00 0.00 83 1010.8
20260508033058 40 0 0.0 0.0 0.00 0.00 0.00 84 1010.8
20260508032556 40 0 0.0 0.0 0.00 0.00 0.00 83 1010.7
20260508032054 39 0 0.0 0.0 0.00 0.00 0.00 81 1010.6
20260508031603 39 0 0.0 0.0 0.00 0.00 0.00 81 1010.6
20260508031054 40 0 0.0 0.0 0.00 0.00 0.00 81 1010.6
20260508030554 40 0 0.0 0.0 0.00 0.00 0.00 80 1010.6
20260508030104 40 0 0.0 0.0 0.00 0.00 0.00 80 1010.5
20260508025553 40 0 0.0 0.0 0.00 0.00 0.00 79 1010.6
20260508025054 40 0 0.0 0.0 0.00 0.00 0.00 78 1010.6
20260508024556 40 0 0.0 0.0 0.00 0.00 0.00 77 1010.6
20260508024056 41 0 0.0 0.0 0.00 0.00 0.00 76 1010.5
20260508023555 41 0 0.0 0.0 0.00 0.00 0.00 76 1010.5
20260508023133 41 0 0.0 0.0 0.00 0.00 0.00 76 1010.4
20260508022553 41 0 0.0 0.0 0.00 0.00 0.00 75 1010.5
20260508022055 42 0 0.0 0.0 0.00 0.00 0.00 74 1010.4
20260508021608 42 0 0.0 0.0 0.00 0.00 0.00 74 1010.4
20260508021054 43 0 0.0 0.0 0.00 0.00 0.00 73 1010.5
20260508020554 43 0 0.0 0.0 0.00 0.00 0.00 72 1010.5
20260508020055 43 0 0.0 0.0 0.00 0.00 0.00 72 1010.5
20260508015554 44 0 0.0 0.0 0.00 0.00 0.00 71 1010.6
20260508015054 44 0 0.0 0.0 0.00 0.00 0.00 71 1010.6
20260508014557 44 0 0.0 0.0 0.00 0.00 0.00 69 1010.6
20260508014054 44 0 0.0 0.0 0.00 0.00 0.00 68 1010.6
20260508013554 44 0 0.0 0.0 0.00 0.00 0.00 67 1010.7
20260508013058 44 0 0.0 0.0 0.00 0.00 0.00 67 1010.7
20260508012554 45 0 0.0 0.0 0.00 0.00 0.00 67 1010.7
20260508012056 45 0 0.0 0.0 0.00 0.00 0.00 65 1010.7
20260508011606 45 0 0.0 0.0 0.00 0.00 0.00 65 1010.7
20260508011054 45 0 0.0 0.0 0.00 0.00 0.00 64 1010.6
20260508010554 46 0 0.0 0.0 0.00 0.00 0.00 62 1010.6
20260508010054 46 0 0.0 0.0 0.00 0.00 0.00 64 1010.6
20260508005558 47 0 0.0 0.0 0.00 0.00 0.00 61 1010.5
20260508005100 47 0 0.0 0.0 0.00 0.00 0.00 60 1010.4
20260508004554 47 0 0.0 0.0 0.00 0.00 0.00 58 1010.2
20260508004055 47 0 0.0 0.0 0.00 0.00 0.00 55 1010.1
20260508003554 47 0 0.0 1.0 0.00 0.00 0.00 53 1010.2
20260508003053 47 314 0.0 1.0 0.00 0.00 0.00 52 1010.1
20260508002556 48 0 0.0 0.0 0.00 0.00 0.00 52 1010.2
20260508002056 48 0 0.0 0.0 0.00 0.00 0.00 54 1010.1
20260508001556 48 0 0.0 0.0 0.00 0.00 0.00 55 1010.0
20260508001056 48 0 0.0 3.0 0.00 0.00 0.00 52 1010.0
20260508000554 48 0 0.0 3.0 0.00 0.00 0.00 53 1010.0
20260508000113 48 309 0.0 3.0 0.00 0.00 0.00 52 1010.0
20260507235558 48 0 0.0 1.0 0.00 0.00 0.00 51 1010.0
20260507235055 48 0 0.0 2.0 0.00 0.00 0.00 52 1010.0
20260507234554 49 0 0.0 2.0 0.00 0.00 0.00 49 1010.0
20260507234055 49 315 0.0 2.0 0.00 0.00 0.00 50 1010.1
20260507233554 49 0 0.0 1.0 0.00 0.00 0.00 51 1010.1
20260507233056 49 0 0.0 3.0 0.00 0.00 0.00 49 1009.9
20260507232556 49 0 0.0 3.0 0.00 0.00 0.00 49 1009.8
20260507232056 49 293 0.0 2.0 0.00 0.00 0.00 49 1009.8
20260507231604 49 0 0.0 2.0 0.00 0.00 0.00 49 1009.9
20260507231059 50 337 0.0 4.0 0.00 0.00 0.00 47 1009.8
20260507230555 50 0 0.0 4.0 0.00 0.00 0.00 46 1009.8
20260507225556 50 334 0.0 5.0 0.00 0.00 0.00 46 1009.8
20260507225101 50 324 0.0 5.0 0.00 0.00 0.00 45 1009.8
20260507224556 50 316 1.0 4.0 0.00 0.00 0.00 44 1009.9
20260507224057 51 333 0.0 5.0 0.00 0.00 0.00 46 1009.9
20260507223559 51 332 2.0 5.0 0.00 0.00 0.00 44 1009.9
20260507223055 51 330 2.0 5.0 0.00 0.00 0.00 43 1010.0
20260507222557 51 309 1.0 5.0 0.00 0.00 0.00 44 1010.0
20260507222056 51 0 0.0 2.0 0.00 0.00 0.00 43 1010.0
20260507221600 51 342 0.0 4.0 0.00 0.00 0.00 44 1009.9
20260507221057 51 344 1.0 4.0 0.00 0.00 0.00 42 1009.9
20260507220558 52 319 1.0 7.0 0.00 0.00 0.00 42 1009.9
20260507220054 52 320 2.0 7.0 0.00 0.00 0.00 42 1010.0
20260507215555 53 349 1.0 5.0 0.00 0.00 0.00 40 1010.0
20260507215055 54 343 1.0 5.0 0.00 0.00 0.00 43 1009.9
20260507214555 54 14 2.0 4.0 0.00 0.00 0.00 41 1009.9
20260507214059 54 359 1.0 8.0 0.00 0.00 0.00 42 1009.9
20260507213556 54 347 2.0 8.0 0.00 0.00 0.00 40 1009.9
20260507213054 53 339 3.0 8.0 0.00 0.00 0.00 44 1009.9
20260507212554 53 313 4.0 8.0 0.00 0.00 0.00 39 1009.9
20260507212053 53 330 2.0 9.0 0.00 0.00 0.00 41 1009.9
20260507211600 53 338 3.0 9.0 0.00 0.00 0.00 45 1009.9
20260507211056 53 358 2.0 9.0 0.00 0.00 0.00 44 1009.9
20260507210557 53 345 2.0 9.0 0.00 0.00 0.00 46 1009.9
20260507210058 53 12 2.0 9.0 0.00 0.00 0.00 43 1009.9
20260507205557 53 342 3.0 9.0 0.00 0.00 0.00 45 1009.9
20260507205054 53 312 3.0 9.0 0.00 0.00 0.00 48 1009.9
20260507204557 54 292 5.0 9.0 0.00 0.00 0.00 45 1009.9
20260507204054 53 328 3.0 6.0 0.00 0.00 0.00 46 1009.9
20260507203601 53 344 2.0 5.0 0.00 0.00 0.00 47 1009.9
20260507203102 53 354 3.0 5.0 0.00 0.00 0.00 46 1009.9
20260507202557 53 32 2.0 6.0 0.00 0.00 0.00 48 1009.9
20260507202056 53 0 1.0 6.0 0.00 0.00 0.00 45 1009.9
20260507201559 54 338 2.0 6.0 0.00 0.00 0.00 46 1009.9
20260507201057 55 294 3.0 6.0 0.00 0.00 0.00 47 1009.9
20260507200557 55 350 0.0 9.0 0.00 0.00 0.00 46 1010.1
20260507200103 54 333 1.0 9.0 0.00 0.00 0.00 48 1010.1
20260507195557 54 329 3.0 9.0 0.00 0.00 0.00 48 1010.2
20260507195057 54 295 2.0 6.0 0.00 0.00 0.00 46 1010.1
20260507194556 54 345 3.0 9.0 0.00 0.00 0.00 45 1010.2
20260507194056 54 351 3.0 9.0 0.00 0.00 0.00 46 1010.2
20260507193557 55 288 2.0 7.0 0.00 0.00 0.00 47 1010.2
20260507193059 55 347 3.0 8.0 0.00 0.00 0.00 49 1010.2
20260507192556 55 328 2.0 8.0 0.00 0.00 0.00 50 1010.2
20260507192056 55 325 4.0 8.0 0.00 0.00 0.00 50 1010.3
20260507191558 55 344 2.0 8.0 0.00 0.00 0.00 46 1010.2
20260507191056 55 330 2.0 5.0 0.00 0.00 0.00 47 1010.2
20260507190556 54 302 3.0 5.0 0.00 0.00 0.00 46 1010.3
20260507190057 54 302 2.0 11.0 0.00 0.00 0.00 47 1010.2
20260507185556 54 340 3.0 11.0 0.00 0.01 0.00 48 1010.4
20260507185055 54 290 3.0 7.0 0.00 0.01 0.00 47 1010.4
20260507184554 55 323 3.0 8.0 0.00 0.01 0.00 46 1010.5
20260507184057 55 348 2.0 13.0 0.00 0.01 0.00 47 1010.4
20260507183558 55 6 2.0 13.0 0.00 0.01 0.00 47 1010.5
20260507183058 55 297 4.0 8.0 0.00 0.01 0.00 47 1010.6
20260507182556 55 320 3.0 6.0 0.00 0.01 0.00 48 1010.6
20260507182057 54 343 2.0 6.0 0.00 0.01 0.00 45 1010.7
20260507181554 54 310 3.0 23.0 0.00 0.01 0.00 45 1010.8
20260507181055 55 12 4.0 23.0 0.00 0.01 0.00 46 1010.8
20260507180555 54 217 5.0 9.0 0.00 0.01 0.00 48 1010.7
20260507180104 54 193 4.0 9.0 0.00 0.01 0.00 49 1010.8
20260507175556 53 288 4.0 9.0 0.00 0.01 0.00 53 1010.8
20260507175054 53 247 1.0 7.0 0.00 0.01 0.00 51 1010.8
20260507174622 53 277 2.0 9.0 0.00 0.01 0.00 50 1010.8
20260507174056 53 279 4.0 9.0 0.00 0.01 0.00 54 1010.8
20260507173556 53 268 3.0 10.0 0.00 0.01 0.00 54 1011.0
20260507173055 53 259 5.0 10.0 0.00 0.01 0.00 55 1011.0
20260507172556 53 0 0.0 8.0 0.00 0.01 0.00 52 1011.1
20260507172057 53 293 1.0 8.0 0.00 0.01 0.00 53 1011.1
20260507171610 52 293 5.0 8.0 0.00 0.01 0.00 53 1011.2
20260507171056 52 287 3.0 12.0 0.00 0.01 0.00 56 1011.2
20260507170556 52 281 3.0 12.0 0.00 0.01 0.00 60 1011.3
20260507170057 51 252 3.0 8.0 0.00 0.01 0.00 60 1011.3
20260507165559 51 214 3.0 8.0 0.00 0.01 0.00 61 1011.3
20260507165054 50 236 3.0 9.0 0.00 0.01 0.00 60 1011.4
20260507164556 51 298 4.0 9.0 0.00 0.01 0.00 55 1011.4
20260507164054 51 301 3.0 8.0 0.00 0.01 0.00 54 1011.4
20260507163555 51 287 3.0 10.0 0.00 0.01 0.00 57 1011.5
20260507163054 51 283 5.0 10.0 0.00 0.01 0.00 61 1011.5
20260507162557 51 293 2.0 8.0 0.00 0.01 0.00 60 1011.6
20260507162059 51 302 4.0 8.0 0.00 0.01 0.00 57 1011.7
20260507161558 51 222 1.0 7.0 0.00 0.01 0.00 59 1011.7
20260507161056 50 274 3.0 7.0 0.00 0.01 0.00 55 1011.8
20260507160554 50 263 3.0 6.0 0.00 0.01 0.00 58 1011.7
20260507160117 50 163 3.0 6.0 0.00 0.01 0.00 58 1011.9
20260507155558 50 289 3.0 7.0 0.00 0.01 0.00 58 1011.9
20260507155100 50 277 2.0 8.0 0.00 0.01 0.00 60 1012.0
20260507154554 50 212 2.0 8.0 0.00 0.01 0.00 56 1012.0
20260507154053 49 0 1.0 5.0 0.00 0.01 0.00 55 1012.0
20260507153559 49 194 2.0 6.0 0.00 0.01 0.00 56 1012.1
20260507153056 49 243 2.0 8.0 0.00 0.01 0.00 58 1012.2
20260507152600 49 219 1.0 8.0 0.00 0.01 0.00 57 1012.2
20260507152059 48 284 3.0 7.0 0.00 0.01 0.00 60 1012.2
20260507151559 48 283 1.0 6.0 0.00 0.01 0.00 57 1012.3
20260507151056 48 0 0.0 5.0 0.00 0.01 0.00 58 1012.3
20260507150555 47 290 1.0 5.0 0.00 0.01 0.00 59 1012.2
20260507150057 47 278 2.0 5.0 0.00 0.01 0.00 58 1012.3
20260507145555 46 0 2.0 4.0 0.00 0.01 0.00 59 1012.4
20260507145055 46 0 0.0 5.0 0.00 0.01 0.00 59 1012.5
20260507144557 45 336 0.0 5.0 0.00 0.01 0.00 63 1012.6
20260507144054 45 293 3.0 5.0 0.00 0.01 0.00 58 1012.5
20260507143554 44 319 1.0 5.0 0.00 0.01 0.00 59 1012.7
20260507143116 44 328 1.0 4.0 0.00 0.01 0.00 60 1012.6